CZ-6A DEB, 54557

Orbit data source: Space-Track

CZ-6A DEB, 54557 is space debris in SSO originally from a launch on Fri, 11 Nov 2022 UTC launched from the Taiyaun Space Center, China (TSC). Debris objects in space refer to the collection of defunct objects orbiting the Earth. Examples of debris include non-operational satellites, rocket bodies, and fragments generated from explosions, collisions, or faulty payload assembly.

Loading next visibility...
Identifier
54557, 2022-151LH
Orbit
SSO
Country
Flag of CNCN / PRC
Related business
Manufacturer
SAST
Mission
Spacecraft
Bus & Motor
Unknown
Mass
Unknown
Launch date (UTC)
2022-11-11 (3 years ago)
Launch vehicle
Unknown
Launch site
Taiyaun Space Center, China (TSC)
Object type
Payload
Rocket body
Debris
Shape & HBR
Unknown shape, 0.3 m
Radar Cross Section
Medium (>0.1 m² and <1 m²)

Expand to show TLE details & history
Last TLE update: 13 hours ago

TLE from 13 hours ago
0 CZ-6A DEB
1 54557U 22151LH  25352.71126919  .00000672  00000-0  17504-3 0  9995
2 54557  98.6055  37.2116 0133597 122.6779 238.7381 14.47721220163375
Epoch: 2025-12-18T17:04Z
TLE epoch observation values (Epoch: 2025-12-18T17:04:13.658Z)
Latitude
-0.00001°
Longitude
53.59184°
Altitude
786.288 km
Speed
7.434 km/s
True Right ascension
02h 28m 50s
True Declination
0° 00' 00"
Sunlit
Object was in full shadow at epoch
Visualization orbit readout
Latitude
Unknown
Longitude
Unknown
Altitude
Unknown
Speed
Unknown
Apparent Right ascension
Unknown
Apparent Declination
Unknown
Sunlit
N/A
Visualization observer readout
Local Sidereal Time
04:27:15
Azimuth
Unknown
Elevation
Unknown
Doppler factor
Unknown
Orbital elements
Apogee altitude
825.182 km
Perigee altitude
635.251 km
Semi-major axis
7,108.354 km
Eccentricity
0.01336
Inclination
98.6055°
RAAN
37.2116°
Arg. of periapsis
122.6779°
True anomaly
237.44083°
Mean anomaly
238.7381°
Eccentric anomaly
238.08833°
Mean motion
3.62151 °/min
Orbital period
99.41 mins
BSTAR
0.00017504
Loading maneuver chart data...
Computing Atmospheric mass density...
Loading historical data...
Loading historical data...
Loading historical data...
Loading historical data...
Loading historical data...
Loading historical data...
Loading historical data...

Documentation

Showing up to 5 results
|